• In Hungary
  • List of Countries
  • For 7 days
  • Water Temperature
  • Satellite Maps
  • Weather Map
  • News
  • Weather Widgets
  • user-avatar
    Login

    Hourly Weather Akka

    Today, 18 July, Wednesday

    Time Temperature Precipitation Wind Pressure Humidity
    00:00 +19°C° 0.1 mm 2 mps 692 mmHg 71%
    01:00 +19°C° 0 mm 2 mps 692 mmHg 68%
    02:00 +19°C° 0 mm 2 mps 692 mmHg 65%
    03:00 +19°C° 0 mm 2 mps 691 mmHg 59%
    04:00 +20°C° 0 mm 2 mps 691 mmHg 58%
    05:00 +22°C° 0 mm 1 mps 692 mmHg 58%
    06:00 +22°C° 0 mm 1 mps 692 mmHg 58%
    07:00 +24°C° 0 mm 2 mps 692 mmHg 55%
    08:00 +26°C° 0 mm 2 mps 692 mmHg 53%
    09:00 +27°C° 0 mm 2 mps 692 mmHg 50%
    10:00 +28°C° 0 mm 3 mps 692 mmHg 49%
    11:00 +29°C° 0 mm 4 mps 692 mmHg 48%
    12:00 +30°C° 0 mm 4 mps 692 mmHg 47%
    13:00 +30°C° 0 mm 4 mps 692 mmHg 49%
    14:00 +30°C° 0 mm 4 mps 691 mmHg 50%
    15:00 +29°C° 0 mm 4 mps 691 mmHg 51%
    16:00 +29°C° 0 mm 4 mps 691 mmHg 56%
    17:00 +28°C° 0 mm 3 mps 691 mmHg 60%
    18:00 +27°C° 0 mm 3 mps 691 mmHg 65%
    19:00 +25°C° 0 mm 2 mps 690 mmHg 66%
    20:00 +24°C° 0 mm 2 mps 690 mmHg 66%
    21:00 +21°C° 0 mm 2 mps 690 mmHg 66%
    22:00 +21°C° 0 mm 2 mps 690 mmHg 61%
    23:00 +21°C° 0 mm 2 mps 690 mmHg 55%

    Tomorrow, 19 July, Thursday

    Time Temperature Precipitation Wind Pressure Humidity
    00:00 +21°C° 0 mm 2 mps 690 mmHg 50%
    01:00 +21°C° 0 mm 2 mps 690 mmHg 48%
    02:00 +21°C° 0 mm 2 mps 690 mmHg 46%
    03:00 +21°C° 0 mm 2 mps 690 mmHg 44%
    04:00 +23°C° 0 mm 2 mps 690 mmHg 45%
    05:00 +23°C° 0 mm 2 mps 690 mmHg 47%
    06:00 +24°C° 0 mm 2 mps 690 mmHg 48%
    07:00 +26°C° 0 mm 2 mps 690 mmHg 46%
    08:00 +28°C° 0 mm 2 mps 690 mmHg 44%
    09:00 +30°C° 0 mm 2 mps 690 mmHg 41%
    10:00 +31°C° 0 mm 2 mps 690 mmHg 42%
    11:00 +33°C° 0 mm 3 mps 690 mmHg 42%
    12:00 +33°C° 0 mm 3 mps 690 mmHg 43%
    13:00 +33°C° 0 mm 3 mps 690 mmHg 44%
    14:00 +33°C° 0 mm 3 mps 689 mmHg 45%
    15:00 +33°C° 0 mm 3 mps 689 mmHg 47%
    16:00 +31°C° 0 mm 2 mps 689 mmHg 51%
    17:00 +30°C° 0 mm 2 mps 689 mmHg 56%
    18:00 +29°C° 0 mm 1 mps 689 mmHg 61%
    19:00 +28°C° 0 mm 1 mps 689 mmHg 65%
    20:00 +26°C° 0 mm 1 mps 689 mmHg 70%
    21:00 +24°C° 0 mm 1 mps 689 mmHg 74%
    22:00 +24°C° 0 mm 2 mps 689 mmHg 72%
    23:00 +24°C° 0 mm 2 mps 689 mmHg 70%

    Day after tomorrow, 20 July, Friday

    Time Temperature Precipitation Wind Pressure Humidity
    00:00 +24°C° 0 mm 2 mps 689 mmHg 68%
    01:00 +24°C° 0 mm 2 mps 689 mmHg 66%
    02:00 +24°C° 0 mm 2 mps 689 mmHg 64%
    03:00 +24°C° 0 mm 2 mps 689 mmHg 61%
    04:00 +24°C° 0 mm 2 mps 689 mmHg 59%
    05:00 +25°C° 0 mm 2 mps 689 mmHg 57%
    06:00 +26°C° 0 mm 2 mps 689 mmHg 55%
    07:00 +28°C° 0 mm 2 mps 690 mmHg 51%
    08:00 +30°C° 0 mm 3 mps 690 mmHg 48%
    09:00 +31°C° 0 mm 3 mps 690 mmHg 44%
    10:00 +33°C° 0 mm 4 mps 690 mmHg 43%
    11:00 +34°C° 0 mm 4 mps 690 mmHg 43%
    12:00 +34°C° 0 mm 5 mps 690 mmHg 43%
    13:00 +34°C° 0 mm 4 mps 690 mmHg 45%
    14:00 +33°C° 0 mm 4 mps 690 mmHg 48%
    15:00 +33°C° 0 mm 4 mps 689 mmHg 50%
    16:00 +31°C° 0 mm 3 mps 689 mmHg 55%
    17:00 +30°C° 0 mm 3 mps 689 mmHg 59%
    18:00 +29°C° 0 mm 2 mps 689 mmHg 63%
    19:00 +27°C° 0 mm 2 mps 689 mmHg 68%
    20:00 +26°C° 0 mm 2 mps 689 mmHg 72%
    21:00 +24°C° 0 mm 2 mps 689 mmHg 77%
    22:00 +24°C° 0 mm 2 mps 689 mmHg 76%
    23:00 +24°C° 0 mm 2 mps 689 mmHg 75%

    21 July, Saturday

    Time Temperature Precipitation Wind Pressure Humidity
    00:00 +24°C° 0 mm 2 mps 690 mmHg 74%
    01:00 +24°C° 0 mm 2 mps 689 mmHg 73%
    02:00 +24°C° 0 mm 2 mps 689 mmHg 72%
    03:00 +24°C° 0 mm 2 mps 689 mmHg 71%
    04:00 +25°C° 0 mm 2 mps 690 mmHg 69%
    05:00 +26°C° 0 mm 2 mps 690 mmHg 67%
    06:00 +26°C° 0 mm 2 mps 690 mmHg 64%
    07:00 +28°C° 0 mm 3 mps 690 mmHg 59%
    08:00 +30°C° 0 mm 3 mps 690 mmHg 53%
    09:00 +32°C° 0 mm 4 mps 691 mmHg 48%
    10:00 +33°C° 0.1 mm 4 mps 691 mmHg 47%
    11:00 +33°C° 0.1 mm 4 mps 691 mmHg 45%
    12:00 +34°C° 0.1 mm 5 mps 691 mmHg 44%
    13:00 +34°C° 0.2 mm 5 mps 691 mmHg 45%
    14:00 +33°C° 0.2 mm 5 mps 690 mmHg 45%
    15:00 +33°C° 0.2 mm 5 mps 690 mmHg 46%
    16:00 +32°C° 0.2 mm 4 mps 690 mmHg 50%
    17:00 +30°C° 0.2 mm 3 mps 690 mmHg 53%
    18:00 +29°C° 0.2 mm 2 mps 690 mmHg 57%
    19:00 +28°C° 0 mm 2 mps 690 mmHg 61%
    20:00 +26°C° 0 mm 2 mps 690 mmHg 66%
    21:00 +24°C° 0 mm 2 mps 691 mmHg 71%
    22:00 +24°C° 0 mm 3 mps 691 mmHg 70%
    23:00 +24°C° 0 mm 3 mps 691 mmHg 69%

    22 July, Sunday

    Time Temperature Precipitation Wind Pressure Humidity
    00:00 +24°C° 0 mm 3 mps 691 mmHg 68%
    01:00 +24°C° 0 mm 3 mps 690 mmHg 67%
    02:00 +24°C° 0 mm 3 mps 690 mmHg 66%
    03:00 +24°C° 0 mm 3 mps 690 mmHg 66%
    04:00 +24°C° 0 mm 2 mps 691 mmHg 64%
    05:00 +25°C° 0 mm 2 mps 691 mmHg 63%
    06:00 +26°C° 0 mm 2 mps 691 mmHg 62%
    07:00 +27°C° 0 mm 2 mps 691 mmHg 57%
    08:00 +29°C° 0 mm 3 mps 692 mmHg 53%
    09:00 +30°C° 0 mm 3 mps 692 mmHg 48%
    10:00 +31°C° 0.3 mm 3 mps 692 mmHg 47%
    11:00 +32°C° 0.3 mm 4 mps 692 mmHg 46%
    12:00 +33°C° 0.3 mm 4 mps 692 mmHg 46%
    13:00 +33°C° 0.3 mm 4 mps 691 mmHg 46%
    14:00 +33°C° 0.3 mm 4 mps 691 mmHg 47%
    15:00 +31°C° 0.3 mm 3 mps 691 mmHg 47%
    16:00 +31°C° 0.1 mm 3 mps 691 mmHg 50%
    17:00 +30°C° 0.1 mm 2 mps 691 mmHg 54%
    18:00 +29°C° 0.1 mm 2 mps 690 mmHg 57%
    19:00 +27°C° 0 mm 2 mps 691 mmHg 61%
    20:00 +26°C° 0 mm 2 mps 691 mmHg 66%
    21:00 +24°C° 0 mm 1 mps 691 mmHg 70%
    22:00 +24°C° 0 mm 2 mps 691 mmHg 68%
    23:00 +24°C° 0 mm 2 mps 690 mmHg 66%

    23 July, Monday

    Time Temperature Precipitation Wind Pressure Humidity
    00:00 +24°C° 0 mm 2 mps 690 mmHg 64%
    01:00 +24°C° 0 mm 2 mps 690 mmHg 63%
    02:00 +24°C° 0 mm 2 mps 690 mmHg 62%
    03:00 +24°C° 0 mm 2 mps 690 mmHg 61%
    04:00 +24°C° 0 mm 2 mps 690 mmHg 60%
    05:00 +25°C° 0 mm 2 mps 691 mmHg 59%
    06:00 +26°C° 0 mm 2 mps 691 mmHg 58%
    07:00 +28°C° 0 mm 2 mps 691 mmHg 53%
    08:00 +29°C° 0 mm 2 mps 691 mmHg 48%
    09:00 +31°C° 0 mm 2 mps 691 mmHg 43%
    10:00 +33°C° 0.1 mm 3 mps 691 mmHg 42%
    11:00 +33°C° 0.1 mm 3 mps 691 mmHg 41%
    12:00 +34°C° 0.1 mm 4 mps 691 mmHg 41%
    13:00 +33°C° 0.1 mm 4 mps 691 mmHg 42%
    14:00 +33°C° 0.1 mm 4 mps 690 mmHg 42%
    15:00 +33°C° 0.1 mm 4 mps 690 mmHg 43%
    16:00 +31°C° 0 mm 3 mps 690 mmHg 47%
    17:00 +30°C° 0 mm 3 mps 690 mmHg 50%
    18:00 +29°C° 0 mm 2 mps 690 mmHg 54%
    19:00 +27°C° 0 mm 2 mps 690 mmHg 58%
    20:00 +26°C° 0 mm 1 mps 690 mmHg 63%
    21:00 +24°C° 0 mm 1 mps 690 mmHg 67%
    22:00 +24°C° 0 mm 2 mps 690 mmHg 65%
    23:00 +24°C° 0 mm 2 mps 691 mmHg 63%
    Show more